User: anonymous   Login
Location: Unspecified
(0.0000°N, 0.0000°E)
Time: 10:18:40
(UTC+00:00)
Language:

SPROUT - Orbit

View from above orbital plane
View from above orbital plane
View from above satellite
View from above satellite

Ground track
Ground track

The orbit data is extracted from the following two-line orbital elements,

1 39770U 14029E   17294.86148414  .00000971  00000-0  11598-3 0  9995
2 39770  97.8761  33.0280 0007676 273.6031  86.4303 14.86472144184952
Epoch (UTC): 21 October 2017 20:40:32
Eccentricity: 0.0007676
inclination: 97.8761°
perigee height: 603 km
apogee height: 614 km
right ascension of ascending node: 33.0280°
argument of perigee: 273.6031°
revolutions per day: 14.86472144
mean anomaly at epoch: 86.4303°
orbit number at epoch: 18495

The dashed part of the orbit path shows where the satellite is in the earth's shadow,  

DLR